Location: Yellowknife
(62.4500°N, 114.3500°W)
Time: 17:41:12
(UTC-06:00)

Amateur Radio Satellites - All Passes

Search period start: 16 August 2017 17:11
Search period end: 17 August 2017 17:11
Location: Yellowknife, 62.4500°N, 114.3500°W

Satellite Date Start Highest point End Downlink Frequencies (MHz)
Time Altitude Azimuth
XW-2C 16 Aug 17:11:56 17:15:05 26° 55° (NE) 17:18:17 145.795 - 145.815
50 SAT 16 Aug 17:20:07 17:21:52 13° 315° (NW) 17:23:36 437.505
MOZHAYETS 4 16 Aug 17:21:45 17:26:22 70° 106° (ESE) 17:30:58
SPROUT 16 Aug 17:24:46 17:26:26 12° 325° (NW) 17:28:06 437.525
ITUPSAT 1 16 Aug 17:24:56 17:29:45 76° 108° (ESE) 17:34:32 437.325
YUBILEINY 16 Aug 17:26:35 17:35:12 64° 94° (E) 17:43:50 435.215
XW-2F 16 Aug 17:27:59 17:31:21 32° 58° (ENE) 17:34:44 145.980 - 146.000
CUBESAT XI-V 16 Aug 17:28:17 17:32:27 29° 92° (E) 17:36:35 437.345
CUTE 1.7 + AOD 2 16 Aug 17:32:22 17:35:10 17° 44° (NE) 17:37:57 437.475
AAUSAT CUBESAT 2 16 Aug 17:55:58 17:57:51 13° 38° (NE) 17:59:43 437.432
XW-2A 16 Aug 17:56:13 17:57:29 12° 45° (NE) 17:58:46 145.665 - 145.685
O/OREOS (USA 219) 16 Aug 17:58:54 18:02:57 31° 22° (NNE) 18:07:01 437.305
KAITUO 1B 16 Aug 18:01:20 18:04:56 47° 64° (ENE) 18:08:34 145.475/437.950
HO-68 16 Aug 18:02:55 18:09:43 49° 49° (NE) 18:16:31 435.675
LilacSat-2 16 Aug 18:05:03 18:08:49 64° 68° (ENE) 18:12:37 437.200
KKS-1 16 Aug 18:08:49 18:12:47 30° 94° (E) 18:16:42 437.445
AO-73 16 Aug 18:12:24 18:13:42 11° 35° (NE) 18:15:01 145.935
XW-2D 16 Aug 18:15:31 18:19:17 75° 70° (ENE) 18:23:06 145.860 - 145.880
UKube-1 16 Aug 18:20:42 18:23:20 16° 321° (NW) 18:25:58 .
CUTE-I 16 Aug 18:23:45 18:29:08 84° 66° (ENE) 18:34:32 437.470
DOVE 4 16 Aug 18:24:20 18:29:32 54° 260° (W) 18:34:36 437.250
XW-2B 16 Aug 18:26:24 18:30:11 89° 71° (ENE) 18:34:01 145.730 - 145.750
CUBEBUG 2 16 Aug 18:27:37 18:31:01 24° 51° (NE) 18:34:22 437.445
SEEDS 16 Aug 18:28:41 18:32:14 26° 53° (NE) 18:35:48 437.485
UWE-3 16 Aug 18:31:15 18:34:13 19° 47° (NE) 18:37:10 435.000/436.395/437.385
BEESAT 16 Aug 18:31:55 18:36:26 43° 303° (WNW) 18:40:56 436.000
DX 1 16 Aug 18:32:30 18:34:22 13° 328° (NNW) 18:36:14 434.975-435.025
NUDT-PHONESAT 16 Aug 18:41:31 18:45:12 85° 253° (WSW) 18:48:56 437.300
RS-15 16 Aug 18:45:00 18:57:28 83° 14° (NNE) 19:09:28 29.354- 29.394
XW-2C 16 Aug 18:45:18 18:49:03 64° 257° (WSW) 18:52:51 145.795 - 145.815
MOZHAYETS 4 16 Aug 18:59:13 19:03:17 31° 307° (NW) 19:07:19
STARS 16 Aug 19:01:14 19:05:21 38° 97° (E) 19:09:27 437.465
Oscar 11 16 Aug 19:01:15 19:04:12 18° 44° (NE) 19:07:09 .
XW-2F 16 Aug 19:01:44 19:05:22 49° 259° (W) 19:09:05 145.980 - 146.000
ITUPSAT 1 16 Aug 19:03:06 19:07:17 31° 309° (NW) 19:11:27 437.325
AO-7 16 Aug 19:04:30 19:08:01 13° 291° (WNW) 19:11:34 .
CUBESAT XI-V 16 Aug 19:05:32 19:10:15 69° 293° (WNW) 19:14:56 437.345
CUTE 1.7 + AOD 2 16 Aug 19:06:07 19:10:18 58° 65° (ENE) 19:14:31 437.475
STRAND 1 16 Aug 19:19:50 19:21:26 11° 76° (ENE) 19:23:03 437.568
ZACube-1 16 Aug 19:21:22 19:24:50 26° 53° (NE) 19:28:18 437.345
YUBILEINY 16 Aug 19:23:50 19:32:25 54° 301° (WNW) 19:41:00 435.215
XW-2A 16 Aug 19:26:18 19:29:32 48° 66° (ENE) 19:32:48 145.665 - 145.685
AAUSAT CUBESAT 2 16 Aug 19:28:27 19:32:21 38° 60° (ENE) 19:36:16 437.432
KAITUO 1B 16 Aug 19:35:46 19:39:07 31° 265° (W) 19:42:30 145.475/437.950
O/OREOS (USA 219) 16 Aug 19:38:28 19:43:01 74° 46° (NE) 19:47:34 437.305
LilacSat-2 16 Aug 19:40:20 19:43:27 24° 269° (W) 19:46:36 437.200
AO-73 16 Aug 19:45:11 19:48:55 33° 57° (ENE) 19:52:40 145.935
KKS-1 16 Aug 19:45:15 19:49:41 63° 295° (WNW) 19:54:04 437.445
DELFI C3 16 Aug 19:45:34 19:47:44 14° 42° (NE) 19:49:53 145.870
HO-68 16 Aug 19:50:11 19:57:20 69° 253° (WSW) 20:04:31 435.675
XW-2D 16 Aug 19:51:04 19:53:56 20° 271° (W) 19:56:49 145.860 - 145.880
XW-2B 16 Aug 20:02:21 20:04:56 17° 273° (W) 20:07:33 145.730 - 145.750
CUBEBUG 2 16 Aug 20:02:59 20:07:17 86° 256° (WSW) 20:11:29 437.445
SEEDS 16 Aug 20:03:22 20:07:36 76° 254° (WSW) 20:11:53 437.485
EO-88 16 Aug 20:04:48 20:06:17 12° 42° (NE) 20:07:47 145.990 - 145.960
CUTE-I 16 Aug 20:05:14 20:09:49 28° 270° (W) 20:14:24 437.470
DOVE 4 16 Aug 20:05:24 20:08:20 15° 282° (WNW) 20:11:14 437.250
UWE-3 16 Aug 20:05:56 20:10:07 71° 69° (ENE) 20:14:16 435.000/436.395/437.385
BEESAT 16 Aug 20:10:22 20:13:16 16° 325° (NW) 20:16:09 436.000
NUDT-PHONESAT 16 Aug 20:17:23 20:19:42 16° 274° (W) 20:22:01 437.300
XW-2C 16 Aug 20:22:19 20:24:02 13° 278° (W) 20:25:46 145.795 - 145.815
Max Valier Satellite 16 Aug 20:32:10 20:34:50 19° 51° (NE) 20:37:30 145.860
Oscar 11 16 Aug 20:35:24 20:39:39 61° 66° (ENE) 20:43:57 .
MOZHAYETS 4 16 Aug 20:37:28 20:39:16 12° 329° (NNW) 20:41:04
STARS 16 Aug 20:37:36 20:41:51 49° 299° (WNW) 20:46:04 437.465
ITUPSAT 1 16 Aug 20:41:47 20:43:54 13° 332° (NNW) 20:46:01 437.325
CUTE 1.7 + AOD 2 16 Aug 20:42:39 20:46:25 30° 267° (W) 20:50:14 437.475
CUBESAT XI-V 16 Aug 20:43:25 20:46:59 22° 315° (NW) 20:50:32 437.345
ESTCUBE 1 16 Aug 20:55:25 20:57:14 12° 31° (NNE) 20:59:03 437.505/2401.250
ZACube-1 16 Aug 20:56:40 21:00:50 75° 255° (WSW) 21:05:00 437.345
STRAND 1 16 Aug 20:57:08 21:02:02 43° 98° (E) 21:06:54 437.568
RS-15 16 Aug 20:57:54 21:10:00 68° 225° (SW) 21:21:34 29.354- 29.394
XW-2A 16 Aug 20:59:40 21:02:29 25° 266° (W) 21:05:20 145.665 - 145.685
AAUSAT CUBESAT 2 16 Aug 21:03:46 21:07:48 46° 261° (W) 21:11:52 437.432
DELFI C3 16 Aug 21:17:51 21:21:42 47° 63° (ENE) 21:25:36 145.870
O/OREOS (USA 219) 16 Aug 21:18:11 21:22:08 30° 248° (WSW) 21:26:06 437.305
AO-73 16 Aug 21:21:00 21:25:04 53° 259° (W) 21:29:09 145.935
KKS-1 16 Aug 21:22:24 21:25:35 19° 317° (NW) 21:28:44 437.445
YUBILEINY 16 Aug 21:24:25 21:31:35 27° 330° (NNW) 21:38:45 435.215
EO-88 16 Aug 21:35:42 21:39:10 44° 63° (ENE) 21:42:41 145.990 - 145.960
HO-68 16 Aug 21:40:52 21:46:26 24° 277° (W) 21:52:01 435.675
SEEDS 16 Aug 21:41:16 21:44:02 17° 276° (W) 21:46:49 437.485
CUBEBUG 2 16 Aug 21:41:32 21:44:32 19° 273° (W) 21:47:32 437.445
UWE-3 16 Aug 21:43:35 21:47:02 24° 270° (W) 21:50:28 435.000/436.395/437.385
LO-87 16 Aug 21:49:05 21:51:32 18° 50° (NE) 21:53:59 145.935 - 145.965
Max Valier Satellite 16 Aug 22:04:34 22:08:14 88° 71° (ENE) 22:11:56 145.860
SPROUT 16 Aug 22:06:58 22:08:46 13° 35° (NE) 22:10:35 437.525
Oscar 11 16 Aug 22:12:19 22:16:07 29° 267° (W) 22:19:58 .
STARS 16 Aug 22:14:41 22:17:23 16° 321° (NW) 22:20:03 437.465
ESTCUBE 1 16 Aug 22:28:53 22:32:53 32° 54° (NE) 22:36:55 437.505/2401.250
FO-29 16 Aug 22:33:05 22:38:48 36° 91° (E) 22:43:56 435.910
ZACube-1 16 Aug 22:35:16 22:37:52 16° 276° (W) 22:40:29 437.345
STRAND 1 16 Aug 22:36:25 22:41:23 52° 300° (WNW) 22:46:20 437.568
PRISM 16 Aug 22:41:36 22:44:10 16° 85° (E) 22:46:43 437.425
AAUSAT CUBESAT 2 16 Aug 22:43:45 22:44:21 10° 283° (WNW) 22:44:56 437.432
UNISAT 6 16 Aug 22:44:58 22:48:19 22° 89° (E) 22:51:40 437.425
DELFI C3 16 Aug 22:52:56 22:56:38 34° 264° (W) 23:00:21 145.870
VELOX 1 16 Aug 22:57:09 23:00:32 21° 45° (NE) 23:03:54 145.980
AO-73 16 Aug 23:00:50 23:02:18 12° 280° (W) 23:03:47 145.935
UKube-1 16 Aug 23:04:41 23:06:13 12° 31° (NNE) 23:07:44 .
EO-88 16 Aug 23:09:40 23:12:58 32° 264° (W) 23:16:19 145.990 - 145.960
RS-15 16 Aug 23:10:29 23:20:29 32° 254° (WSW) 23:30:08 29.354- 29.394
DX 1 16 Aug 23:15:07 23:17:41 15° 38° (NE) 23:20:15 434.975-435.025
LO-87 16 Aug 23:20:53 23:24:29 79° 71° (ENE) 23:28:06 145.935 - 145.965
TIGRISAT 16 Aug 23:21:12 23:25:10 36° 96° (E) 23:29:08 435.000
50 SAT 16 Aug 23:24:38 23:26:10 13° 44° (NE) 23:27:42 437.505
YUBILEINY 16 Aug 23:25:57 23:32:12 21° 3° (N) 23:38:25 435.215
SPROUT 16 Aug 23:39:46 23:43:41 36° 57° (ENE) 23:47:36 437.525
Max Valier Satellite 16 Aug 23:40:10 23:42:38 17° 273° (W) 23:45:06 145.860
AIST 2D 16 Aug 23:51:10 23:53:08 14° 85° (E) 23:55:07 435.315
ITUPSAT 1 16 Aug 23:55:03 23:55:49 10° 20° (NNE) 23:56:35 437.325
ESTCUBE 1 17 Aug 00:04:58 00:09:28 68° 255° (WSW) 00:14:02 437.505/2401.250
M-CUBED/EXP-1 PRIME 17 Aug 00:06:11 00:08:49 15° 89° (E) 00:11:23 437.505
PRISM 17 Aug 00:16:01 00:20:13 72° 107° (ESE) 00:24:21 437.425
STRAND 1 17 Aug 00:16:07 00:19:42 20° 323° (NW) 00:23:16 437.568
NANOSAT C BR1 17 Aug 00:17:41 00:19:46 13° 82° (E) 00:21:52 145.865
POLYITAN 1 17 Aug 00:17:42 00:20:03 14° 83° (E) 00:22:24 437.675
FO-29 17 Aug 00:18:11 00:24:28 69° 297° (WNW) 00:30:02 435.910
UNISAT 6 17 Aug 00:21:17 00:25:35 82° 293° (WNW) 00:29:54 437.425
VELOX 1 17 Aug 00:31:56 00:36:24 72° 67° (ENE) 00:40:53 145.980
QB50P2 17 Aug 00:32:05 00:35:09 19° 87° (E) 00:38:14 145.880/145.840
EO-79 17 Aug 00:34:31 00:37:33 19° 87° (E) 00:40:33 145.935-145.965
UKube-1 17 Aug 00:37:19 00:41:07 31° 53° (NE) 00:44:57 .
DX 1 17 Aug 00:48:49 00:53:00 45° 60° (ENE) 00:57:13 434.975-435.025
50 SAT 17 Aug 00:54:50 00:58:10 50° 65° (ENE) 01:01:32 437.505
LO-87 17 Aug 00:55:50 00:58:23 18° 271° (W) 01:00:57 145.935 - 145.965
TIGRISAT 17 Aug 00:57:55 01:02:03 49° 298° (WNW) 01:06:12 435.000
BEESAT 17 Aug 00:58:18 01:01:18 17° 36° (NE) 01:04:18 436.000
SO-50 17 Aug 00:58:44 01:00:47 13° 116° (ESE) 01:02:50 436.795
PCSat 17 Aug 01:05:21 01:10:06 32° 121° (ESE) 01:14:52 145.827
DUCHIFAT 1 17 Aug 01:09:56 01:13:34 28° 93° (E) 01:17:12 145.980
SPROUT 17 Aug 01:15:20 01:19:31 52° 259° (WSW) 01:23:43 437.525
MOZHAYETS 4 17 Aug 01:22:23 01:25:20 17° 40° (NE) 01:28:19
AIST 2D 17 Aug 01:23:23 01:26:57 80° 106° (ESE) 01:30:31 435.315
YUBILEINY 17 Aug 01:25:11 01:32:39 30° 35° (NE) 01:40:03 435.215
ITUPSAT 1 17 Aug 01:28:33 01:32:11 22° 43° (NE) 01:35:49 437.325
BUGSAT 1 17 Aug 01:29:06 01:31:42 16° 86° (E) 01:34:18 437.445
CUBESAT XI-V 17 Aug 01:32:33 01:33:43 11° 26° (NNE) 01:34:54 437.345
M-CUBED/EXP-1 PRIME 17 Aug 01:39:34 01:44:11 59° 111° (ESE) 01:48:33 437.505
ESTCUBE 1 17 Aug 01:44:20 01:47:09 16° 277° (W) 01:50:00 437.505/2401.250
PRISM 17 Aug 01:51:39 01:55:12 27° 308° (NW) 01:58:45 437.425
NANOSAT C BR1 17 Aug 01:52:13 01:56:22 61° 103° (ESE) 02:00:32 145.865
POLYITAN 1 17 Aug 01:52:28 01:56:41 66° 105° (ESE) 02:00:52 437.675
STRAND 1 17 Aug 01:56:14 01:57:14 11° 347° (NNW) 01:58:12 437.568
UNISAT 6 17 Aug 01:58:33 02:01:51 22° 312° (NW) 02:05:07 437.425
Oscar 19 17 Aug 02:03:14 02:07:07 21° 85° (E) 02:10:59 437.125/150
FO-29 17 Aug 02:03:29 02:08:41 27° 322° (NW) 02:13:26 435.910
QB50P2 17 Aug 02:07:20 02:11:35 89° 108° (ESE) 02:15:49 145.880/145.840
KKS-1 17 Aug 02:08:52 02:10:04 11° 28° (NNE) 02:11:16 437.445
VELOX 1 17 Aug 02:09:30 02:13:17 26° 268° (W) 02:17:06 145.980
EO-79 17 Aug 02:09:42 02:13:57 87° 107° (ESE) 02:18:10 145.935-145.965
UKube-1 17 Aug 02:12:37 02:16:56 66° 254° (WSW) 02:21:17 .
DX 1 17 Aug 02:25:06 02:29:17 42° 261° (W) 02:33:29 434.975-435.025
50 SAT 17 Aug 02:28:09 02:31:05 25° 266° (W) 02:34:01 437.505
BEESAT 17 Aug 02:33:37 02:38:10 46° 58° (ENE) 02:42:44 436.000
TIGRISAT 17 Aug 02:35:27 02:37:57 15° 319° (NW) 02:40:28 435.000
SO-50 17 Aug 02:35:59 02:40:15 42° 137° (SE) 02:44:32 436.795
Gurwin Techsat 1B 17 Aug 02:40:01 02:44:29 26° 89° (E) 02:48:55 435.225
DUCHIFAT 1 17 Aug 02:45:27 02:49:35 62° 295° (WNW) 02:53:42 145.980
PCSat 17 Aug 02:47:35 02:53:02 85° 144° (SE) 02:58:31 145.827
SPROUT 17 Aug 02:54:52 02:56:26 12° 280° (W) 02:58:01 437.525
AIST 2D 17 Aug 02:57:07 02:59:48 21° 307° (NW) 03:02:30 435.315
MOZHAYETS 4 17 Aug 02:57:15 03:01:41 52° 62° (ENE) 03:06:09
STARS 17 Aug 02:59:27 03:01:11 12° 31° (NNE) 03:02:53 437.465
AO-7 17 Aug 03:00:35 03:04:50 14° 71° (ENE) 03:09:04 .
BUGSAT 1 17 Aug 03:03:42 03:07:46 79° 108° (ESE) 03:11:47 437.445
ITUPSAT 1 17 Aug 03:04:39 03:09:23 69° 65° (ENE) 03:14:09 437.325
CUBESAT XI-V 17 Aug 03:05:54 03:09:44 26° 49° (NE) 03:13:37 437.345
M-CUBED/EXP-1 PRIME 17 Aug 03:14:07 03:18:29 40° 312° (NW) 03:22:39 437.505
YUBILEINY 17 Aug 03:22:45 03:31:29 63° 64° (ENE) 03:40:06 435.215
NANOSAT C BR1 17 Aug 03:28:13 03:31:55 31° 305° (NW) 03:35:37 145.865
POLYITAN 1 17 Aug 03:28:35 03:32:15 29° 306° (NW) 03:35:54 437.675
PRISM 17 Aug 03:28:46 03:29:20 10° 330° (NNW) 03:29:55 437.425
STRAND 1 17 Aug 03:33:50 03:34:25 10° 11° (N) 03:35:01 437.568
KKS-1 17 Aug 03:41:38 03:45:24 27° 50° (NE) 03:49:09 437.445
Oscar 19 17 Aug 03:42:05 03:47:19 76° 106° (ESE) 03:52:33 437.125/150
QB50P2 17 Aug 03:43:36 03:46:58 24° 310° (NW) 03:50:20 145.880/145.840
EO-79 17 Aug 03:45:56 03:49:19 24° 310° (NW) 03:52:42 145.935-145.965
FO-29 17 Aug 03:48:13 03:51:55 16° 348° (NNW) 03:55:25 435.910
UKube-1 17 Aug 03:51:15 03:53:49 15° 276° (W) 03:56:23 .
BEESAT 17 Aug 04:11:26 04:16:01 46° 260° (W) 04:20:38 436.000
SO-50 17 Aug 04:16:00 04:20:32 84° 340° (NNW) 04:25:07 436.795
Gurwin Techsat 1B 17 Aug 04:19:44 04:25:07 88° 291° (WNW) 04:30:27 435.225
DUCHIFAT 1 17 Aug 04:21:48 04:24:36 18° 316° (NW) 04:27:24 145.980
PCSat 17 Aug 04:31:26 04:36:49 57° 348° (NNW) 04:42:12 145.827
STARS 17 Aug 04:32:30 04:36:25 32° 54° (NE) 04:40:20 437.465
MOZHAYETS 4 17 Aug 04:34:47 04:39:02 38° 264° (W) 04:43:20
BUGSAT 1 17 Aug 04:39:31 04:42:48 24° 309° (NW) 04:46:03 437.445
CUBESAT XI-V 17 Aug 04:41:59 04:46:40 89° 71° (ENE) 04:51:25 437.345
ITUPSAT 1 17 Aug 04:43:27 04:47:38 30° 267° (W) 04:51:51 437.325
M-CUBED/EXP-1 PRIME 17 Aug 04:48:51 04:51:56 18° 334° (NNW) 04:54:58 437.505
ITAMSAT 1 17 Aug 04:51:56 04:56:45 37° 96° (E) 05:01:33 435.822/435.867
AO-7 17 Aug 04:52:18 05:00:13 43° 97° (E) 05:08:03 .
NANOSAT C BR1 17 Aug 05:05:22 05:06:33 11° 327° (NNW) 05:07:45 145.865
POLYITAN 1 17 Aug 05:05:59 05:06:55 11° 328° (NNW) 05:07:52 437.675
STRAND 1 17 Aug 05:08:30 05:11:53 18° 35° (NE) 05:15:16 437.568
KKS-1 17 Aug 05:17:06 05:21:36 82° 251° (WSW) 05:26:07 437.445
YUBILEINY 17 Aug 05:19:56 05:28:18 54° 271° (W) 05:36:37 435.215
Oscar 19 17 Aug 05:21:43 05:26:22 34° 309° (NW) 05:31:00 437.125/150
FO-29 17 Aug 05:30:54 05:34:49 16° 14° (NNE) 05:38:30 435.910
BEESAT 17 Aug 05:53:28 05:55:02 11° 282° (WNW) 05:56:37 436.000
SO-50 17 Aug 05:56:46 06:01:17 67° 4° (N) 06:05:50 436.795
Gurwin Techsat 1B 17 Aug 06:00:04 06:04:36 29° 314° (NW) 06:09:08 435.225
STARS 17 Aug 06:08:11 06:12:34 65° 255° (WSW) 06:16:58 437.465
DOVE 4 17 Aug 06:12:24 06:16:24 24° 87° (E) 06:20:12 437.250
PCSat 17 Aug 06:15:32 06:20:55 58° 13° (NNE) 06:26:18 145.827
NO-84 17 Aug 06:17:57 06:19:55 17° 166° (SSE) 06:21:56 435.350 FM
CUBESAT XI-V 17 Aug 06:21:00 06:24:41 23° 273° (W) 06:28:24 437.345
M-CUBED/EXP-1 PRIME 17 Aug 06:23:02 06:24:54 12° 356° (N) 06:26:47 437.505
XW-2F 17 Aug 06:24:23 06:25:30 11° 81° (E) 06:26:36 145.980 - 146.000
CUTE-I 17 Aug 06:30:19 06:33:31 16° 80° (E) 06:36:42 437.470
ITAMSAT 1 17 Aug 06:31:25 06:36:34 62° 298° (WNW) 06:41:40 435.822/435.867
STRAND 1 17 Aug 06:45:14 06:50:07 47° 58° (ENE) 06:55:00 437.568
AO-7 17 Aug 06:45:20 06:53:43 79° 302° (WNW) 07:02:03 .
KKS-1 17 Aug 06:55:37 06:58:52 19° 273° (W) 07:02:07 437.445
KAITUO 1B 17 Aug 06:56:00 06:58:28 16° 86° (E) 07:00:58 145.475/437.950
Oscar 19 17 Aug 07:01:37 07:04:27 15° 332° (NNW) 07:07:17 437.125/150
LilacSat-2 17 Aug 07:01:48 07:04:55 23° 91° (E) 07:08:02 437.200
HO-68 17 Aug 07:06:19 07:10:36 16° 75° (ENE) 07:14:53 435.675
XW-2D 17 Aug 07:11:24 07:14:40 26° 92° (E) 07:17:57 145.860 - 145.880
FO-29 17 Aug 07:12:18 07:18:06 27° 38° (NE) 07:23:24 435.910
YUBILEINY 17 Aug 07:17:31 07:23:10 20° 297° (WNW) 07:28:48 435.215
TIGRISAT 17 Aug 07:22:07 07:22:41 10° 30° (NNE) 07:23:16 435.000
XW-2B 17 Aug 07:22:15 07:25:41 30° 95° (E) 07:29:06 145.730 - 145.750
NUDT-PHONESAT 17 Aug 07:34:50 07:38:12 30° 95° (E) 07:41:33 437.300
BEESAT 3 17 Aug 07:36:38 07:39:36 20° 124° (SE) 07:42:34 437.485
SO-50 17 Aug 07:37:24 07:41:56 81° 209° (SSW) 07:46:31 436.795
SEEDS 17 Aug 07:37:50 07:39:05 11° 78° (ENE) 07:40:20 437.485
Gurwin Techsat 1B 17 Aug 07:40:31 07:43:09 14° 337° (NNW) 07:45:47 435.225
XW-2C 17 Aug 07:40:59 07:44:40 42° 99° (E) 07:48:21 145.795 - 145.815
BEESAT 2 17 Aug 07:42:38 07:43:50 11° 115° (ESE) 07:45:02 435.950
CUBEBUG 2 17 Aug 07:44:47 07:45:21 10° 78° (ENE) 07:45:56 437.445
STARS 17 Aug 07:47:13 07:49:47 15° 276° (W) 07:52:21 437.465
DOVE 4 17 Aug 07:49:47 07:54:44 83° 292° (WNW) 07:59:21 437.250
NO-84 17 Aug 07:54:25 07:56:35 19° 186° (S) 07:58:51 435.350 FM
M-CUBED/EXP-1 PRIME 17 Aug 07:55:13 07:57:49 15° 19° (NNE) 08:00:24 437.505
XW-2F 17 Aug 07:56:44 08:00:30 54° 102° (ESE) 08:04:16 145.980 - 146.000
PCSat 17 Aug 07:59:11 08:04:39 81° 218° (SW) 08:10:06 145.827
AO-85 17 Aug 08:07:06 08:10:11 22° 127° (SE) 08:13:20 145.980
PRISM 17 Aug 08:07:37 08:09:57 15° 39° (NE) 08:12:17 437.425
CUTE-I 17 Aug 08:09:29 08:14:46 57° 103° (ESE) 08:20:01 437.470
XW-2A 17 Aug 08:10:51 08:12:27 13° 85° (E) 08:14:04 145.665 - 145.685
ITAMSAT 1 17 Aug 08:11:20 08:15:18 22° 320° (NW) 08:19:13 435.822/435.867
CUTE 1.7 + AOD 2 17 Aug 08:15:45 08:19:27 27° 91° (E) 08:23:08 437.475
UNISAT 6 17 Aug 08:19:04 08:22:07 19° 46° (NE) 08:25:09 437.425
STRAND 1 17 Aug 08:24:23 08:29:21 50° 259° (W) 08:34:21 437.568
KAITUO 1B 17 Aug 08:29:15 08:33:04 85° 112° (ESE) 08:36:53 145.475/437.950
ZACube-1 17 Aug 08:35:07 08:36:38 12° 80° (E) 08:38:10 437.345
AAUSAT CUBESAT 2 17 Aug 08:35:09 08:37:55 17° 84° (E) 08:40:41 437.432
LilacSat-2 17 Aug 08:35:44 08:39:35 69° 292° (WNW) 08:43:27 437.200
AO-7 17 Aug 08:38:11 08:45:45 40° 328° (NNW) 08:53:16 .
XW-2D 17 Aug 08:45:23 08:49:10 59° 293° (WNW) 08:52:57 145.860 - 145.880
HO-68 17 Aug 08:53:15 09:00:13 50° 100° (E) 09:07:09 435.675
TIGRISAT 17 Aug 08:54:33 08:58:13 28° 53° (NE) 09:01:51 435.000
FO-29 17 Aug 08:55:01 09:02:17 63° 61° (ENE) 09:08:49 435.910
XW-2B 17 Aug 08:56:21 09:00:04 50° 295° (WNW) 09:03:48 145.730 - 145.750
AO-73 17 Aug 08:58:09 09:00:46 16° 84° (E) 09:03:24 145.935
NUDT-PHONESAT 17 Aug 09:08:38 09:12:16 48° 296° (WNW) 09:15:53 437.300
SEEDS 17 Aug 09:11:40 09:15:50 49° 100° (E) 09:19:58 437.485
BEESAT 3 17 Aug 09:12:35 09:16:35 63° 146° (SE) 09:20:37 437.485
XW-2C 17 Aug 09:15:19 09:18:52 36° 300° (WNW) 09:22:24 145.795 - 145.815
BEESAT 2 17 Aug 09:16:51 09:20:38 39° 137° (SE) 09:24:27 435.950
SO-50 17 Aug 09:18:02 09:22:02 31° 229° (SW) 09:26:02 436.795
CUBEBUG 2 17 Aug 09:19:01 09:23:04 47° 100° (E) 09:27:07 437.445
Gurwin Techsat 1B 17 Aug 09:20:12 09:21:09 10° 2° (N) 09:22:07 435.225
UWE-3 17 Aug 09:20:37 09:24:29 34° 96° (E) 09:28:21 435.000/436.395/437.385
M-CUBED/EXP-1 PRIME 17 Aug 09:27:07 09:31:04 29° 41° (NE) 09:35:05 437.505
DOVE 4 17 Aug 09:27:52 09:31:52 25° 313° (NW) 09:35:39 437.250
XW-2F 17 Aug 09:31:08 09:34:29 30° 302° (WNW) 09:37:50 145.980 - 146.000
NO-84 17 Aug 09:32:09 09:33:11 11° 206° (SSW) 09:34:15 435.350 FM
PRISM 17 Aug 09:40:24 09:44:24 46° 61° (ENE) 09:48:25 437.425
XW-2A 17 Aug 09:42:25 09:45:49 76° 106° (ESE) 09:49:13 145.665 - 145.685
PCSat 17 Aug 09:42:53 09:47:31 29° 241° (WSW) 09:52:09 145.827
AO-85 17 Aug 09:46:09 09:50:04 72° 148° (SSE) 09:54:06 145.980
NANOSAT C BR1 17 Aug 09:46:26 09:48:22 13° 37° (NE) 09:50:18 145.865
POLYITAN 1 17 Aug 09:46:50 09:48:57 14° 38° (NE) 09:51:04 437.675
Oscar 11 17 Aug 09:47:39 09:51:28 29° 92° (E) 09:55:17 .
CUTE-I 17 Aug 09:49:44 09:54:47 43° 305° (NW) 09:59:47 437.470
ITAMSAT 1 17 Aug 09:51:23 09:53:11 12° 344° (NNW) 09:54:59 435.822/435.867
CUTE 1.7 + AOD 2 17 Aug 09:51:23 09:55:40 66° 293° (WNW) 09:59:57 437.475
UNISAT 6 17 Aug 09:53:56 09:58:15 68° 67° (ENE) 10:02:31 437.425
QB50P2 17 Aug 10:00:55 10:03:35 17° 43° (NE) 10:06:16 145.880/145.840
EO-79 17 Aug 10:03:13 10:05:51 16° 42° (NE) 10:08:28 145.935-145.965
KAITUO 1B 17 Aug 10:03:47 10:06:41 21° 308° (NW) 10:09:36 145.475/437.950
STRAND 1 17 Aug 10:07:25 10:09:49 13° 282° (WNW) 10:12:13 437.568
ZACube-1 17 Aug 10:09:47 10:13:55 52° 101° (E) 10:18:05 437.345
AAUSAT CUBESAT 2 17 Aug 10:09:52 10:14:06 77° 107° (ESE) 10:18:18 437.432
LilacSat-2 17 Aug 10:10:44 10:13:18 17° 312° (NW) 10:15:53 437.200
Oscar 19 17 Aug 10:17:06 10:19:16 13° 21° (NNE) 10:21:27 437.125/150
DELFI C3 17 Aug 10:18:54 10:21:46 18° 87° (E) 10:24:36 145.870
XW-2D 17 Aug 10:20:24 10:22:42 15° 314° (NW) 10:25:00 145.860 - 145.880
EO-88 17 Aug 10:27:53 10:29:54 14° 85° (E) 10:31:54 145.990 - 145.960
AO-7 17 Aug 10:30:01 10:36:46 29° 354° (N) 10:43:30 .
TIGRISAT 17 Aug 10:30:19 10:34:39 73° 255° (WSW) 10:38:56 435.000
XW-2B 17 Aug 10:31:31 10:33:31 14° 317° (NW) 10:35:32 145.730 - 145.750
AO-73 17 Aug 10:33:33 10:37:46 72° 105° (ESE) 10:42:02 145.935
AIST 2D 17 Aug 10:35:13 10:38:15 28° 58° (ENE) 10:41:19 435.315
DUCHIFAT 1 17 Aug 10:37:34 10:40:45 21° 48° (NE) 10:43:56 145.980
FO-29 17 Aug 10:40:21 10:47:35 50° 262° (W) 10:54:07 435.910
HO-68 17 Aug 10:41:12 10:48:16 63° 304° (WNW) 10:55:19 435.675
NUDT-PHONESAT 17 Aug 10:43:37 10:45:24 13° 317° (NW) 10:47:12 437.300
SEEDS 17 Aug 10:47:32 10:51:29 38° 301° (WNW) 10:55:26 437.485
BEESAT 3 17 Aug 10:50:12 10:54:14 66° 348° (NNW) 10:58:18 437.485
XW-2C 17 Aug 10:50:59 10:52:09 11° 321° (NW) 10:53:18 145.795 - 145.815
BEESAT 2 17 Aug 10:54:08 10:58:13 82° 339° (NNW) 11:02:20 435.950
BUGSAT 1 17 Aug 10:55:34 10:57:49 14° 41° (NE) 11:00:02 437.445
CUBEBUG 2 17 Aug 10:55:51 10:59:41 37° 301° (WNW) 11:03:32 437.445
Gurwin Techsat 1B 17 Aug 10:56:19 10:59:13 15° 26° (NNE) 11:02:06 435.225
UWE-3 17 Aug 10:57:06 11:01:08 50° 297° (WNW) 11:05:13 435.000/436.395/437.385
Max Valier Satellite 17 Aug 10:57:34 11:00:47 27° 94° (E) 11:03:59 145.860
M-CUBED/EXP-1 PRIME 17 Aug 11:00:26 11:05:02 86° 64° (ENE) 11:09:46 437.505
DOVE 4 17 Aug 11:06:41 11:08:04 11° 336° (NNW) 11:09:27 437.250
XW-2A 17 Aug 11:15:41 11:18:14 20° 306° (NW) 11:20:46 145.665 - 145.685
PRISM 17 Aug 11:15:52 11:19:48 38° 262° (W) 11:23:44 437.425
NANOSAT C BR1 17 Aug 11:19:14 11:23:09 39° 59° (ENE) 11:27:04 145.865
POLYITAN 1 17 Aug 11:19:53 11:23:51 42° 60° (ENE) 11:27:50 437.675
Oscar 11 17 Aug 11:23:38 11:27:58 63° 293° (WNW) 11:32:16 .
AO-85 17 Aug 11:26:38 11:30:35 64° 353° (N) 11:34:41 145.980
CUTE 1.7 + AOD 2 17 Aug 11:27:51 11:30:53 19° 314° (NW) 11:33:54 437.475
ITAMSAT 1 17 Aug 11:29:35 11:30:42 11° 9° (N) 11:31:48 435.822/435.867
CUTE-I 17 Aug 11:30:16 11:33:46 18° 328° (NNW) 11:37:15 437.470
UNISAT 6 17 Aug 11:31:41 11:35:22 26° 268° (W) 11:39:01 437.425
QB50P2 17 Aug 11:34:33 11:38:41 55° 64° (ENE) 11:42:49 145.880/145.840
EO-79 17 Aug 11:36:46 11:40:53 54° 63° (ENE) 11:45:00 145.935-145.965
RS-15 17 Aug 11:37:06 11:46:02 25° 99° (E) 11:54:55 29.354- 29.394
O/OREOS (USA 219) 17 Aug 11:40:51 11:44:53 34° 114° (ESE) 11:48:57 437.305
AAUSAT CUBESAT 2 17 Aug 11:45:43 11:49:15 26° 307° (NW) 11:52:44 437.432
ZACube-1 17 Aug 11:46:19 11:50:07 35° 302° (WNW) 11:54:00 437.345
ESTCUBE 1 17 Aug 11:47:09 11:49:42 15° 82° (E) 11:52:15 437.505/2401.250
Oscar 19 17 Aug 11:52:55 11:57:08 26° 44° (NE) 12:01:24 437.125/150
DELFI C3 17 Aug 11:53:05 11:57:07 90° 95° (E) 12:01:08 145.870
EO-88 17 Aug 12:00:33 12:04:14 75° 106° (ESE) 12:07:55 145.990 - 145.960
AIST 2D 17 Aug 12:07:56 12:11:20 49° 260° (W) 12:14:47 435.315
TIGRISAT 17 Aug 12:09:23 12:12:07 16° 276° (W) 12:14:50 435.000
AO-73 17 Aug 12:10:12 12:13:44 27° 306° (NW) 12:17:19 145.935
LO-87 17 Aug 12:10:41 12:13:34 22° 91° (E) 12:16:25 145.935 - 145.965
DUCHIFAT 1 17 Aug 12:11:45 12:15:56 81° 68° (ENE) 12:20:09 145.980
AO-7 17 Aug 12:20:28 12:27:36 33° 21° (NNE) 12:34:42 .
SEEDS 17 Aug 12:24:18 12:26:11 13° 323° (NW) 12:28:05 437.485
BEESAT 3 17 Aug 12:28:06 12:32:09 66° 11° (N) 12:36:11 437.485
BUGSAT 1 17 Aug 12:28:27 12:32:23 47° 62° (ENE) 12:36:18 437.445
HO-68 17 Aug 12:29:04 12:35:02 30° 328° (NNW) 12:41:01 435.675
FO-29 17 Aug 12:29:47 12:34:12 17° 285° (WNW) 12:38:24 435.910
Max Valier Satellite 17 Aug 12:31:15 12:34:51 52° 295° (WNW) 12:38:28 145.860
BEESAT 2 17 Aug 12:32:12 12:36:15 61° 1° (N) 12:40:20 435.950
Gurwin Techsat 1B 17 Aug 12:33:09 12:37:51 33° 49° (NE) 12:42:34 435.225
CUBEBUG 2 17 Aug 12:33:41 12:35:22 12° 323° (NW) 12:37:02 437.445
UWE-3 17 Aug 12:34:26 12:36:50 15° 318° (NW) 12:39:14 435.000/436.395/437.385
M-CUBED/EXP-1 PRIME 17 Aug 12:36:11 12:39:58 25° 263° (W) 12:43:51 437.505
SPROUT 17 Aug 12:50:33 12:53:04 15° 83° (E) 12:55:35 437.525
NANOSAT C BR1 17 Aug 12:54:49 12:58:52 46° 260° (W) 13:02:56 145.865
POLYITAN 1 17 Aug 12:55:41 12:59:42 42° 261° (W) 13:03:43 437.675
Oscar 11 17 Aug 13:00:25 13:03:27 19° 315° (NW) 13:06:28 .
ITAMSAT 1 17 Aug 13:05:02 13:08:25 18° 33° (NNE) 13:11:48 435.822/435.867
AO-85 17 Aug 13:07:14 13:11:16 74° 18° (NNE) 13:15:31 145.980
CUTE-I 17 Aug 13:10:36 13:12:01 11° 352° (N) 13:13:27 437.470
QB50P2 17 Aug 13:10:56 13:14:43 31° 265° (W) 13:18:32 145.880/145.840
EO-79 17 Aug 13:13:05 13:16:53 32° 265° (W) 13:20:42 145.935-145.965
O/OREOS (USA 219) 17 Aug 13:19:37 13:24:06 67° 316° (NW) 13:28:37 437.305
ESTCUBE 1 17 Aug 13:22:56 13:27:28 61° 103° (ESE) 13:31:59 437.505/2401.250
ZACube-1 17 Aug 13:23:54 13:25:26 12° 324° (NW) 13:26:57 437.345
DELFI C3 17 Aug 13:28:21 13:31:28 22° 309° (NW) 13:34:35 145.870
Oscar 19 17 Aug 13:30:44 13:35:54 78° 66° (ENE) 13:41:07 437.125/150
EO-88 17 Aug 13:34:41 13:37:36 23° 306° (NW) 13:40:31 145.990 - 145.960
50 SAT 17 Aug 13:39:33 13:40:56 12° 85° (E) 13:42:19 437.505
LO-87 17 Aug 13:43:47 13:47:20 61° 292° (WNW) 13:50:50 145.935 - 145.965
RS-15 17 Aug 13:44:03 13:55:54 57° 127° (SE) 14:07:39 29.354- 29.394
VELOX 1 17 Aug 13:47:22 13:51:23 32° 94° (E) 13:55:22 145.980
DUCHIFAT 1 17 Aug 13:48:53 13:52:08 22° 271° (W) 13:55:24 145.980
UKube-1 17 Aug 13:50:13 13:51:37 11° 80° (E) 13:53:00 .
DX 1 17 Aug 14:02:22 14:05:27 18° 87° (E) 14:08:31 434.975-435.025
BUGSAT 1 17 Aug 14:04:08 14:07:55 35° 263° (W) 14:11:40 437.445
BEESAT 3 17 Aug 14:05:47 14:09:49 62° 214° (SSW) 14:13:46 437.485
Max Valier Satellite 17 Aug 14:06:06 14:08:00 14° 316° (NW) 14:09:56 145.860
BEESAT 2 17 Aug 14:10:09 14:14:16 90° 173° (S) 14:18:21 435.950
Tancredo 1 17 Aug 14:10:42 14:10:50 10° 171° (S) 14:10:58 437.200
AO-7 17 Aug 14:10:59 14:19:06 57° 47° (NE) 14:27:14 .
Gurwin Techsat 1B 17 Aug 14:12:07 14:17:28 81° 252° (WSW) 14:22:51 435.225
HO-68 17 Aug 14:15:57 14:20:56 21° 354° (N) 14:25:54 435.675
DOVE 4 17 Aug 14:17:57 14:19:26 11° 24° (NNE) 14:20:55 437.250
SPROUT 17 Aug 14:25:32 14:29:47 68° 104° (ESE) 14:34:02 437.525
nSIGHT-1 17 Aug 14:26:37 14:27:00 10° 162° (SSE) 14:27:22 .
NANOSAT C BR1 17 Aug 14:35:10 14:35:40 10° 282° (WNW) 14:36:10 145.865
ITAMSAT 1 17 Aug 14:41:57 14:46:51 44° 56° (NE) 14:51:47 435.822/435.867
YUBILEINY 17 Aug 14:46:43 14:51:30 16° 58° (ENE) 14:56:15 435.215
AO-85 17 Aug 14:47:39 14:51:36 49° 219° (SW) 14:55:48 145.980
CUTE-I 17 Aug 14:47:57 14:50:05 12° 17° (NNE) 14:52:14 437.470
ESTCUBE 1 17 Aug 14:59:59 15:04:08 35° 305° (NW) 15:08:14 437.505/2401.250
O/OREOS (USA 219) 17 Aug 15:00:15 15:04:14 30° 341° (NNW) 15:08:14 437.305
50 SAT 17 Aug 15:10:52 15:14:18 69° 106° (ESE) 15:17:42 437.505
Oscar 19 17 Aug 15:11:20 15:15:47 29° 269° (W) 15:20:17 437.125/150
LO-87 17 Aug 15:18:08 15:20:09 15° 314° (NW) 15:22:10 145.935 - 145.965
VELOX 1 17 Aug 15:23:44 15:28:08 59° 296° (WNW) 15:32:30 145.980
UKube-1 17 Aug 15:24:28 15:28:43 49° 102° (ESE) 15:32:55 .
DX 1 17 Aug 15:37:56 15:42:21 80° 108° (ESE) 15:46:44 434.975-435.025
BEESAT 3 17 Aug 15:43:51 15:46:47 20° 236° (SW) 15:49:42 437.485
ISS 17 Aug 15:47:32 15:49:10 13° 179° (S) 15:50:46 437.550
BEESAT 2 17 Aug 15:48:03 15:51:45 33° 227° (SW) 15:55:25 435.950
DOVE 4 17 Aug 15:51:30 15:55:40 25° 47° (NE) 15:59:44 437.250
Gurwin Techsat 1B 17 Aug 15:54:06 15:58:15 23° 274° (W) 16:02:25 435.225
RS-15 17 Aug 15:55:30 16:07:58 89° 336° (NNW) 16:20:11 29.354- 29.394
BEESAT 17 Aug 16:00:15 16:04:04 23° 89° (E) 16:07:50 436.000
nSIGHT-1 17 Aug 16:00:48 16:02:22 13° 182° (S) 16:03:56 .
HO-68 17 Aug 16:01:15 16:06:39 24° 20° (NNE) 16:12:02 435.675
SPROUT 17 Aug 16:01:47 16:05:28 29° 306° (NW) 16:09:07 437.525
AO-7 17 Aug 16:03:34 16:11:54 66° 252° (WSW) 16:20:17 .
KAITUO 1B 17 Aug 16:15:05 16:16:07 11° 39° (NE) 16:17:08 145.475/437.950
MOZHAYETS 4 17 Aug 16:18:09 16:22:06 27° 91° (E) 16:26:02
ITAMSAT 1 17 Aug 16:21:11 16:26:19 56° 257° (WSW) 16:31:27 435.822/435.867
LilacSat-2 17 Aug 16:21:42 16:23:46 14° 44° (NE) 16:25:51 437.200
CUTE-I 17 Aug 16:24:23 16:28:33 24° 41° (NE) 16:32:44 437.470
CUBESAT XI-V 17 Aug 16:28:40 16:30:42 12° 78° (ENE) 16:32:42 437.345
AO-85 17 Aug 16:28:50 16:31:15 15° 240° (WSW) 16:33:45 145.980
XW-2D 17 Aug 16:30:31 16:32:48 15° 45° (NE) 16:35:04 145.860 - 145.880
ITUPSAT 1 17 Aug 16:31:44 16:36:08 35° 96° (E) 16:40:31 437.325
ESTCUBE 1 17 Aug 16:37:46 16:39:50 13° 327° (NNW) 16:41:56 437.505/2401.250
YUBILEINY 17 Aug 16:37:52 16:46:00 45° 85° (E) 16:54:08 435.215
O/OREOS (USA 219) 17 Aug 16:41:06 16:44:52 25° 6° (N) 16:48:39 437.305
XW-2B 17 Aug 16:41:06 16:43:37 17° 48° (NE) 16:46:10 145.730 - 145.750
50 SAT 17 Aug 16:44:01 16:46:42 22° 307° (NW) 16:49:22 437.505
NUDT-PHONESAT 17 Aug 16:51:56 16:54:20 17° 48° (NE) 16:56:45 437.300
XW-2C 17 Aug 16:59:23 17:02:20 22° 52° (NE) 17:05:18 145.795 - 145.815
KKS-1 17 Aug 16:59:29 17:00:00 10° 77° (ENE) 17:00:32 437.445
UKube-1 17 Aug 17:00:40 17:04:43 39° 303° (WNW) 17:08:44 .
VELOX 1 17 Aug 17:00:48 17:03:53 19° 318° (NW) 17:06:57 145.980
SEEDS 17 Aug 17:06:44 17:07:47 11° 33° (NNE) 17:08:50 437.485
